Probability
1 2 3 3 3 3 3 3 3 3 2 1 0 0 0 0 0 0 0 1 2 2 1 0 0 0 0 1 2 3 3 3 3 3 2 2 2 2
1 2 3 3 3 3 3 4 4 3 2 1 0 0 0 0 0 0 0 0 1 1 0 0 0 0 0 0 1 2 2 2 2 1 1 1 1 1
1 1 2 3 2 1 2 3 4 3 2 0 0 0 0 0 0 0 0 0 0 0 0 0 0 0 0 0 0 1 1 1 0 0 0 0 0 0
2 2 3 3 2 1 1 2 2 2 1 0 0 0 0 0 0 0 0 0 0 0 0 0 0 0 0 0 0 0 0 0 0 0 0 0 0 0
3 3 3 3 3 3 3 1 0 1 1 0 0 0 0 0 0 0 0 0 0 0 0 0 0 0 0 0 0 0 0 0 0 0 0 0 0 0
4 3 3 3 4 5 3 2 1 1 1 0 0 0 0 0 0 0 0 0 0 0 0 0 0 0 0 0 0 0 0 0 0 0 0 0 0 0
4 4 3 2 3 4 3 3 2 2 2 1 0 0 0 0 0 0 0 0 0 0 1 0 0 0 0 0 0 0 0 0 0 0 0 0 0 0
5 5 3 3 3 3 3 3 3 3 2 1 0 0 0 0 0 0 0 0 0 0 0 0 0 0 0 0 0 0 0 0 0 0 0 0 0 0
8 7 5 4 3 3 3 3 2 2 3 2 1 0 0 0 0 0 0 0 0 0 0 0 0 0 0 0 0 0 0 0 0 0 0 0 0 0
9 8 7 6 4 3 3 3 3 2 2 2 1 0 0 0 0 0 0 0 0 0 0 0 0 0 0 0 0 0 0 0 0 0 0 0 0 0
9 9 8 7 6 4 4 4 4 3 2 1 0 0 0 0 0 0 1 1 1 0 0 0 0 0 0 0 0 0 0 0 0 0 0 0 0 0
7 7 7 7 6 5 5 6 5 4 2 1 0 0 0 0 0 0 1 2 2 1 0 0 0 0 0 0 0 0 0 0 0 0 0 0 0 0
7 7 6 5 5 4 5 5 5 4 2 1 0 0 0 0 0 0 0 1 2 1 1 0 0 0 0 0 0 0 0 0 0 0 0 0 0 0
8 7 5 3 2 2 2 2 2 1 1 0 0 0 0 0 0 0 0 1 2 2 2 1 0 0 0 0 0 0 0 0 0 0 0 0 0 0
6 4 2 1 1 0 0 0 0 0 0 0 0 0 1 1 0 1 1 1 1 1 1 1 0 0 0 0 0 0 0 0 0 0 0 0 0 0
2 2 1 0 0 0 0 0 0 0 0 0 0 0 1 1 1 2 2 1 0 0 0 0 0 0 0 0 0 0 0 0 0 0 0 0 0 0
1 1 2 1 1 0 0 0 0 0 0 0 0 0 1 1 1 1 1 1 0 0 0 0 0 0 0 0 0 0 0 0 0 0 0 0 0 0
1 2 3 3 2 1 1 1 0 0 0 0 0 0 0 0 0 0 0 0 0 0 0 0 0 0 0 0 0 0 0 0 0 0 0 0 0 0
1 2 3 3 3 2 1 1 1 0 0 0 0 0 0 0 0 0 0 0 0 0 0 0 0 0 0 0 0 0 0 0 0 0 0 0 0 0
3 3 3 3 3 2 0 0 0 0 0 0 0 0 0 0 0 0 0 0 0 0 0 0 0 0 0 0 0 0 0 0 0 0 0 0 0 0
3 3 3 3 3 2 1 1 0 0 1 1 1 1 1 1 1 0 0 0 0 0 0 0 0 0 0 0 0 0 0 0 0 0 0 0 0 0
3 3 3 3 3 3 3 2 1 1 2 2 2 2 1 1 1 0 0 0 0 0 0 0 0 0 0 0 0 0 0 0 0 0 0 0 0 0
3 3 3 3 3 3 3 3 2 2 3 3 3 2 2 1 1 0 0 0 0 0 0 0 0 0 0 0 0 0 0 0 0 0 0 0 0 0
Wind_Speed
1 1 1 2 1 2 2 2 2 2 2 2 2 2 2 2 2 2 2 3 3 4 4 5 5 5 5 5 5 5 5 5 5 5 6 6 6 7
1 1 2 2 1 1 2 2 3 3 3 2 2 2 2 2 2 2 2 3 3 4 4 5 6 6 6 5 5 6 6 6 6 6 6 6 6 6
1 2 2 2 2 1 2 2 2 3 3 3 2 2 2 2 2 2 2 2 3 4 4 5 5 5 6 6 6 6 7 7 7 6 6 6 6 6
2 2 3 2 2 2 2 2 2 3 3 4 2 2 2 3 2 3 2 2 3 4 4 3 4 4 5 5 6 6 6 6 6 6 6 6 6 6
2 2 3 2 3 2 2 2 2 2 3 3 3 2 2 2 2 2 3 2 3 3 3 3 4 4 5 5 6 6 6 6 6 6 5 5 5 5
2 2 3 3 3 3 2 3 2 2 2 3 3 2 2 2 2 2 2 2 3 3 3 3 4 4 5 5 5 6 6 6 6 6 5 5 6 5
2 2 3 3 3 2 2 2 2 2 2 2 2 2 2 2 2 2 3 3 3 2 2 2 2 2 3 4 5 5 6 6 6 6 6 6 7 7
2 2 3 3 3 4 4 3 3 3 3 2 3 3 4 3 2 3 2 2 3 2 2 3 2 3 3 3 4 5 5 5 6 6 6 6 7 7
2 2 3 3 3 3 4 4 4 4 4 4 4 5 4 4 3 3 3 4 4 2 2 3 2 3 3 3 5 5 5 5 5 5 6 6 6 7
3 3 3 4 3 2 2 3 3 4 4 3 4 5 5 4 4 4 4 4 4 3 3 3 3 3 3 3 4 5 5 5 5 5 5 5 6 7
3 3 3 4 5 3 2 3 4 4 4 4 5 5 6 5 4 2 2 2 3 3 2 3 2 2 3 3 3 4 4 4 5 5 5 5 5 5
3 3 4 4 5 3 3 3 4 5 4 4 4 4 3 3 3 4 4 3 3 3 2 3 2 1 3 2 2 2 3 3 4 4 4 4 4 3
2 3 3 5 5 5 4 4 5 5 3 3 3 4 3 2 2 3 3 3 3 4 2 3 2 2 3 3 2 3 3 2 3 3 3 4 5 4
3 3 3 5 5 4 3 4 4 3 2 2 2 3 3 4 3 3 4 4 5 6 4 4 3 3 3 4 3 2 2 2 3 3 2 2 3 4
3 4 5 4 4 3 3 3 2 2 2 3 4 4 4 4 4 3 3 3 4 4 4 5 5 4 4 4 3 3 2 2 3 2 2 2 2 2
3 3 3 3 3 3 3 2 1 2 2 4 4 4 3 3 3 2 3 2 3 3 3 4 4 5 4 5 4 4 3 2 2 2 2 2 2 3
2 1 2 2 2 3 3 3 2 2 2 3 3 4 4 3 3 3 2 3 3 3 4 2 2 3 4 4 4 4 4 3 3 3 2 2 3 3
0 1 2 2 2 3 3 3 3 3 3 3 3 4 4 4 4 3 3 3 4 4 4 3 2 2 2 3 5 5 4 4 3 3 3 3 3 3
1 2 3 3 3 3 3 3 3 3 3 3 3 4 4 4 4 4 4 3 4 4 4 3 3 3 4 5 3 5 5 3 3 3 3 3 4 3
2 3 3 3 3 3 3 3 3 3 3 3 3 3 3 4 4 4 4 4 4 4 4 3 4 4 5 5 3 3 5 5 4 4 3 3 2 2
3 3 3 3 3 3 3 3 3 3 3 3 3 3 3 3 4 4 4 5 4 4 5 5 5 5 4 2 3 3 3 5 5 4 3 3 2 2
3 3 3 3 3 3 3 3 3 3 3 3 3 3 3 3 4 5 4 4 4 4 5 4 3 2 2 3 4 4 3 2 3 4 4 4 3 3
3 3 3 3 3 3 2 3 3 3 3 3 3 3 4 4 4 4 4 4 4 4 4 3 2 2 2 3 3 3 3 2 1 1 1 2 4 4
Wind_Direction
259 262 266 270 243 230 219 205 204 253 278 271 271 283 283 269 282 264 258 249 245 244 248 249 246 248 246 248 253 252 250 248 248 248 247 247 246 242
244 256 267 273 268 246 230 221 213 217 250 261 259 289 293 291 296 275 264 267 257 253 254 253 249 245 240 239 243 245 243 240 242 245 245 244 242 242
274 267 277 281 275 274 244 224 222 216 243 269 259 277 270 285 298 285 271 266 268 260 265 261 257 248 241 243 241 241 240 238 240 245 245 242 238 239
264 269 280 281 279 276 259 246 237 223 227 261 273 265 262 269 276 276 285 281 275 270 265 264 260 255 248 248 244 244 243 243 243 245 245 243 238 236
250 257 270 271 276 273 263 257 252 244 231 244 268 263 268 273 284 285 288 287 282 271 258 254 258 259 256 257 252 248 244 242 242 243 243 243 242 239
253 259 263 256 259 263 258 256 255 257 250 248 261 268 272 276 264 280 293 289 286 282 278 269 262 261 259 256 250 247 241 236 233 235 236 236 237 237
273 274 270 277 282 275 275 261 250 252 258 260 266 270 273 269 265 266 276 291 278 255 263 267 261 265 270 264 251 242 238 235 233 232 230 231 233 232
270 289 288 288 299 301 297 284 259 245 247 248 261 262 266 260 260 252 259 274 278 240 245 273 256 264 270 266 263 248 238 235 236 233 230 231 233 234
251 275 293 304 300 289 298 306 295 281 254 236 247 255 257 246 242 253 249 249 258 258 242 270 266 266 268 269 261 249 243 240 240 237 234 233 232 232
255 253 266 285 289 287 287 302 296 286 274 258 246 256 258 250 233 238 252 266 270 253 219 247 255 264 276 271 258 242 235 234 238 238 237 235 232 229
275 273 269 276 292 296 284 293 301 301 293 287 275 272 270 263 247 231 236 250 273 265 215 230 249 269 275 265 264 254 242 236 240 242 240 235 226 220
294 293 285 282 289 283 263 268 282 290 299 301 300 303 289 272 249 228 230 239 258 261 208 212 237 259 275 255 261 272 261 254 247 248 242 226 204 198
277 288 290 294 287 278 263 253 262 273 281 286 293 299 300 290 274 249 233 227 238 252 224 203 229 232 249 273 274 265 256 260 250 246 237 212 191 188
260 273 283 296 294 290 279 277 282 289 286 292 295 294 294 293 291 280 256 242 240 246 242 221 229 229 240 260 270 267 250 247 238 236 223 194 194 199
272 280 295 301 298 292 294 297 299 295 290 286 283 281 281 283 288 290 277 257 258 252 243 233 232 234 236 247 256 259 266 256 230 217 210 204 209 207
293 303 309 312 313 311 316 315 302 280 270 273 281 286 293 291 284 284 286 286 276 274 255 237 231 228 237 242 242 250 245 239 235 227 218 217 216 216
300 315 327 333 333 331 327 323 323 312 287 282 284 290 295 293 289 290 277 275 263 268 275 269 251 242 240 241 245 248 246 243 233 220 210 223 234 226
311 293 292 288 287 296 301 306 308 304 299 291 286 286 289 289 290 291 279 270 275 271 269 269 259 254 251 247 229 241 242 239 233 215 211 220 243 239
241 276 280 278 278 280 282 285 289 295 295 293 293 293 289 285 283 284 285 282 282 282 276 263 240 234 249 261 246 214 228 233 223 218 219 220 232 235
259 268 275 278 278 278 280 282 286 291 291 293 294 296 299 295 288 283 280 281 281 283 283 269 246 238 243 255 262 251 219 220 218 220 219 219 233 232
267 270 273 277 279 278 276 278 281 283 287 289 291 297 301 300 298 295 292 289 280 275 278 277 267 254 251 241 247 257 250 218 213 216 210 206 216 219
268 272 275 275 272 270 272 276 283 286 287 284 295 301 300 294 294 296 295 295 289 281 278 284 286 256 227 234 243 254 262 245 211 209 214 213 213 213
258 265 271 272 269 270 271 275 281 286 288 288 292 295 297 297 295 293 292 289 289 292 296 297 289 262 248 243 246 251 255 252 217 204 248 239 215 220